[[{"header":{"parameterUnit":"m.s-1","parameterCategory":1,"la1":30.2991,"la2":30.254,"lo1":-89.0895,"lo2":-89.0444,"dy":0.0017,"dx":0.0017,"nx":28,"ny":28,"refTime":"2023-10-08T21:00:00:Z","depth":0,"parameterNumber":2,"parameterNumberName":"U-component_of_WINDS"},"data":[0,0,0,0,0,0,0,0,0,0,0,0,0,0,0,0,0,0,0,0,0,0,0,0,0,0,0,0,0,0,0,0,0,0,0,0,0,0,0,0,0,0,0,0,0,0,0,0,0,0,0,0,0,0,0,0,0,0,-2.5684,-2.5684,0,-2.5685,-2.5685,-2.5685,-2.5595,-2.5593,-2.559,-2.5588,-2.5589,-2.5591,-2.5593,0,0,0,0,0,0,0,0,0,0,0,0,0,-2.5605,-2.5607,-2.5684,-2.5684,-2.5684,-2.5685,-2.5685,-2.5685,-2.5595,-2.5593,-2.559,-2.5587,-2.5588,-2.5591,-2.5593,0,0,0,0,0,0,0,0,0,0,0,0,0,-2.5626,-2.5608,-2.5684,-2.5639,-2.5635,-2.5685,-2.5685,-2.5685,-2.5596,-2.5592,-2.5589,-2.5586,-2.5587,-2.559,-2.5594,-2.5685,0,0,-2.5604,-2.5605,0,0,0,0,0,0,0,0,-2.5625,-2.5629,-2.5646,-2.5643,-2.5638,-2.5636,-2.5657,-2.5685,-2.5597,-2.5611,-2.5588,-2.5584,-2.5607,-2.5609,-2.5617,-2.5685,-2.5685,-2.5604,-2.5606,-2.5608,-2.5608,0,0,0,0,0,0,0,-2.5624,-2.5628,-2.5684,-2.5646,-2.5642,-2.5619,-2.5619,-2.5662,-2.5629,-2.561,-2.5603,-2.5604,-2.5604,-2.5614,-2.5616,-2.5685,-2.5604,-2.5607,-2.5609,-2.561,-2.5831,-2.5835,0,0,0,0,0,0,-2.5628,-2.5628,-2.5684,-2.5684,-2.5623,-2.5624,-2.5623,-2.564,-2.5628,-2.5623,-2.5607,-2.56,-2.561,-2.5612,-2.5616,-2.5724,-2.5608,-2.5611,-2.5613,-2.5827,-2.5832,-2.5836,0,0,0,0,0,0,-2.5627,-2.5634,-2.5684,-2.5654,-2.5659,-2.5629,-2.565,-2.5642,-2.5651,-2.5627,-2.562,-2.5623,-2.5607,-2.5611,-2.5669,-2.5723,-2.5612,-2.5615,-2.5823,-2.5829,-2.5834,-2.5941,0,0,0,0,0,0,-2.5625,-2.5634,-2.5669,-2.5656,-2.5661,-2.5738,-2.5653,-2.5645,-2.5657,-2.5648,-2.564,-2.5635,-2.5605,-2.5665,-2.5672,-2.5725,-2.5618,-2.5818,-2.5825,-2.5832,-2.5932,-2.595,-2.5964,0,0,0,0,0,-2.5623,-2.5698,-2.5671,-2.5678,-2.5703,-2.5741,-2.5744,-2.5708,-2.5662,-2.5697,-2.5681,-2.5635,-2.5715,-2.5671,-2.5679,-2.5734,-2.5814,-2.5823,-2.5831,-2.5925,-2.5946,-2.5964,0,0,0,0,0,0,-2.5718,-2.5696,-2.5665,-2.5739,-2.5743,-2.5726,-2.5769,-2.5731,-2.5747,-2.5738,-2.5692,-2.5691,-2.5757,-2.575,-2.5702,-2.5823,-2.5757,-2.5767,-2.5825,-2.5845,-2.586,-2.5862,-2.5621,0,0,0,0,0,-2.5748,-2.578,-2.5759,-2.5826,-2.5829,-2.5799,-2.5814,-2.5786,-2.5788,-2.5789,-2.5777,-2.5781,-2.5807,-2.5825,-2.5847,-2.593,-2.5928,-2.5972,-2.5988,-2.6001,-2.6012,-2.6057,-2.6077,-2.5864,-2.5864,-2.5864,0,0,-2.5809,-2.5801,-2.5824,-2.5845,-2.5845,-2.588,-2.5801,-2.5841,-2.5867,-2.5794,-2.585,-2.5841,-2.5842,-2.5914,-2.5945,-2.5911,-2.6069,-2.6012,-2.6023,-2.6026,-2.6068,-2.6088,-2.6106,-2.587,-2.5869,-2.5868,0,0,-2.594,-2.5937,-2.5993,-2.5995,-2.5995,-2.5974,-2.5988,-2.5977,-2.5969,-2.6023,-2.5971,-2.6,-2.6045,-2.6049,-2.6057,-2.619,-2.6149,-2.6198,-2.6282,-2.6327,-2.6344,-2.6359,-2.6409,-2.6427,-2.6208,-2.6209,-2.6209,0,-2.6017,-2.6068,-2.6027,-2.6072,-2.6083,-2.6019,-2.6077,-2.608,-2.6088,-2.6097,-2.6059,-2.6115,-2.6111,-2.6184,-2.6217,-2.6224,-2.6239,-2.62,-2.6345,-2.6359,-2.6372,-2.6419,-2.6438,-2.6215,-2.6214,-2.6213,-2.6213,0,-2.6164,-2.62,-2.6246,-2.6256,-2.6272,-2.6323,-2.629,-2.6311,-2.6281,-2.6265,-2.6321,-2.6314,-2.6335,-2.6349,-2.632,-2.6418,-2.6398,-2.6353,-2.6286,-2.6399,-2.6443,-2.646,-2.6224,-2.6221,-2.622,-2.6218,0,0,-2.6356,-2.6344,-2.6361,-2.6366,-2.6362,-2.6389,-2.6437,-2.6458,-2.6478,-2.6485,-2.6525,-2.6565,-2.6524,-2.6533,-2.6503,-2.6543,-2.6651,-2.6493,-2.6492,-2.6525,-2.6762,-2.6798,-2.6819,-2.6623,-2.6626,-2.6629,-2.6762,0,-2.6486,-2.6568,-2.6532,-2.6618,-2.6652,-2.6592,-2.6634,-2.6636,-2.6622,-2.6649,-2.6632,-2.6663,-2.6605,-2.661,-2.6646,-2.6631,-2.6699,-2.662,-2.6662,-2.6664,-2.6666,-2.6841,-2.6879,-2.7006,-2.6779,-2.6782,-2.6784,0,-2.6648,-2.6663,-2.6753,-2.6744,-2.6757,-2.6795,-2.6812,-2.6838,-2.684,-2.6826,-2.6837,-2.6799,-2.6846,-2.6777,-2.6842,-2.679,-2.6804,-2.6799,-2.6803,-2.6808,-2.6733,-2.6853,-2.7045,-2.7065,-2.681,-2.6808,-2.6806,0,-2.6783,-2.6825,-2.6885,-2.689,-2.6881,-2.691,-2.6907,-2.6905,-2.692,-2.6934,-2.6944,-2.6963,-2.6975,-2.6991,-2.696,-2.6912,-2.703,-2.6958,-2.7022,-2.7023,-2.7051,-2.7051,-2.7251,-2.7056,-2.7056,-2.7056,-2.7055,0,-2.6932,-2.699,-2.6946,-2.6983,-2.7046,-2.7004,-2.7068,-2.7059,-2.7058,-2.7092,-2.704,-2.7073,-2.7028,-2.7058,-2.7033,-2.7092,-2.7096,-2.7088,-2.7082,-2.7095,-2.7096,-2.7106,-2.7097,-2.7061,-2.706,-2.7059,-2.7058,0,-2.7095,-2.7067,-2.7129,-2.7115,-2.7113,-2.7161,-2.7149,-2.7183,-2.7164,-2.7209,-2.7217,-2.7189,-2.722,-2.719,-2.7219,-2.7203,-2.7283,-2.7262,-2.7283,-2.7278,-2.7345,-2.734,-2.756,-2.7588,-2.7373,-2.7375,-2.7377,0,-2.7194,-2.7237,-2.7228,-2.7248,-2.7249,-2.7281,-2.7297,-2.7257,-2.7275,-2.7281,-2.7315,-2.7342,-2.7362,-2.7416,-2.7398,-2.7421,-2.7402,-2.7477,-2.7405,-2.7417,-2.7406,-2.7405,-2.741,-2.7493,-2.7495,-2.7497,-2.7499,0,-2.7373,-2.7357,-2.7382,-2.7403,-2.7423,-2.7437,-2.7446,-2.7465,-2.7424,-2.7448,-2.748,-2.7496,-2.7526,-2.7555,-2.7572,-2.7569,-2.7529,-2.7522,-2.7538,-2.7554,-2.7565,-2.7563,-2.7326,-2.7517,-2.7516,-2.7514,-2.7513,-2.7513,-2.7509,-2.7545,-2.7546,-2.7575,-2.7578,-2.7589,-2.7621,-2.7607,-2.7633,-2.7656,-2.763,-2.767,-2.7671,-2.769,-2.7692,-2.7723,-2.7692,-2.7715,-2.7721,-2.7728,-2.774,-2.7558,-2.7726,-2.7725,-2.7725,-2.7724,-2.7724,0,-2.7688,-2.7685,-2.7712,-2.7728,-2.7752,-2.771,-2.7719,-2.7742,-2.7778,-2.7782,-2.7803,-2.7841,-2.7869,-2.7853,-2.7877,-2.7905,-2.7887,-2.7913,-2.7912,-2.7912,-2.7765,-2.775,-2.7927,-2.7927,-2.7927,-2.7927,-2.7927,-2.7927,-2.7784,-2.7845,-2.7829,-2.7891,-2.7887,-2.7926,-2.7935,-2.7945,-2.7949,-2.7994,-2.8017,-2.8006,-2.8003,-2.8026,-2.805,-2.8044,-2.8057,-2.809,-2.8079,-2.7942,-2.7922,-2.7903,-2.7889,-2.8093,-2.8093,-2.8223,-2.8225,-2.8226]},{"header":{"parameterUnit":"m.s-1","parameterCategory":1,"la1":30.2991,"la2":30.254,"lo1":-89.0895,"lo2":-89.0444,"dy":0.0017,"dx":0.0017,"nx":28,"ny":28,"refTime":"2023-10-08T21:00:00:Z","depth":0,"parameterNumber":3,"parameterNumberName":"V-component_of_WINDS"},"data":[0,0,0,0,0,0,0,0,0,0,0,0,0,0,0,0,0,0,0,0,0,0,0,0,0,0,0,0,0,0,0,0,0,0,0,0,0,0,0,0,0,0,0,0,0,0,0,0,0,0,0,0,0,0,0,0,0,0,-4.1462,-4.1462,0,-4.1505,-4.1505,-4.1506,-4.1442,-4.1439,-4.1437,-4.1435,-4.1478,-4.1481,-4.1484,0,0,0,0,0,0,0,0,0,0,0,0,0,-4.1321,-4.1324,-4.1462,-4.1462,-4.1463,-4.1505,-4.1505,-4.1506,-4.1442,-4.1439,-4.1437,-4.1434,-4.1477,-4.148,-4.1484,0,0,0,0,0,0,0,0,0,0,0,0,0,-4.1375,-4.1325,-4.1461,-4.1436,-4.1434,-4.1505,-4.1505,-4.1506,-4.1443,-4.1439,-4.1436,-4.1433,-4.1475,-4.148,-4.1485,-4.1582,0,0,-4.15,-4.1502,0,0,0,0,0,0,0,0,-4.1372,-4.138,-4.1439,-4.1438,-4.1436,-4.1464,-4.1472,-4.1532,-4.1444,-4.1439,-4.1435,-4.1431,-4.1476,-4.148,-4.1496,-4.1584,-4.1586,-4.15,-4.1503,-4.1505,-4.1506,0,0,0,0,0,0,0,-4.1369,-4.1378,-4.1479,-4.144,-4.1438,-4.1422,-4.1425,-4.1483,-4.1476,-4.1439,-4.1435,-4.1441,-4.1474,-4.1491,-4.1496,-4.1586,-4.15,-4.1504,-4.1507,-4.1509,-4.1757,-4.176,0,0,0,0,0,0,-4.1368,-4.1376,-4.1477,-4.148,-4.1395,-4.1427,-4.1431,-4.1459,-4.1475,-4.1474,-4.1444,-4.1438,-4.1485,-4.1491,-4.1498,-4.1613,-4.1505,-4.1509,-4.1512,-4.1753,-4.1758,-4.1762,0,0,0,0,0,0,-4.1366,-4.1378,-4.1475,-4.1427,-4.1438,-4.1433,-4.1464,-4.1461,-4.1478,-4.1478,-4.1477,-4.1463,-4.1482,-4.1491,-4.1562,-4.1614,-4.1512,-4.1516,-4.1749,-4.1754,-4.176,-4.1845,0,0,0,0,0,0,-4.1362,-4.1377,-4.1415,-4.1428,-4.1441,-4.154,-4.1467,-4.1465,-4.1487,-4.148,-4.1496,-4.1495,-4.148,-4.1555,-4.1567,-4.1619,-4.152,-4.1744,-4.1751,-4.1758,-4.1838,-4.1853,-4.1866,0,0,0,0,0,-4.1357,-4.1437,-4.1417,-4.143,-4.1487,-4.1543,-4.155,-4.1532,-4.1492,-4.1529,-4.1529,-4.1495,-4.1606,-4.1563,-4.1575,-4.163,-4.1741,-4.1749,-4.1757,-4.1831,-4.185,-4.1866,0,0,0,0,0,0,-4.1429,-4.1438,-4.1416,-4.1503,-4.1523,-4.1532,-4.1579,-4.1552,-4.1584,-4.1575,-4.1551,-4.1555,-4.1631,-4.1637,-4.1589,-4.1725,-4.1666,-4.1678,-4.1718,-4.1736,-4.175,-4.1747,-4.1524,0,0,0,0,0,-4.1455,-4.15,-4.1505,-4.1581,-4.1592,-4.1584,-4.1607,-4.1592,-4.1611,-4.1619,-4.1624,-4.1644,-4.1683,-4.171,-4.1746,-4.1838,-4.184,-4.1881,-4.1895,-4.1907,-4.1917,-4.1967,-4.1985,-4.1789,-4.1789,-4.1789,0,0,-4.1509,-4.1519,-4.1549,-4.1595,-4.1609,-4.1656,-4.1591,-4.1643,-4.1678,-4.1627,-4.1694,-4.1699,-4.1719,-4.1801,-4.1837,-4.1808,-4.1972,-4.1917,-4.1927,-4.1931,-4.1977,-4.1996,-4.2012,-4.1794,-4.1793,-4.1792,0,0,-4.1632,-4.1644,-4.1709,-4.1724,-4.1746,-4.174,-4.1755,-4.1769,-4.177,-4.1838,-4.1801,-4.1841,-4.1909,-4.1925,-4.1943,-4.2072,-4.2041,-4.2084,-4.2158,-4.2207,-4.2222,-4.2236,-4.2283,-4.23,-4.2094,-4.2094,-4.2094,0,-4.1696,-4.1766,-4.1745,-4.1801,-4.1822,-4.1778,-4.1844,-4.1859,-4.1891,-4.1907,-4.1874,-4.1959,-4.1969,-4.2055,-4.2087,-4.2102,-4.2119,-4.2082,-4.2222,-4.2235,-4.2248,-4.2292,-4.231,-4.2099,-4.2099,-4.2098,-4.2098,0,-4.1844,-4.1893,-4.1943,-4.1976,-4.2003,-4.2063,-4.2051,-4.208,-4.2062,-4.206,-4.2129,-4.214,-4.2178,-4.2197,-4.2179,-4.228,-4.2262,-4.2226,-4.2167,-4.2272,-4.2313,-4.233,-4.2106,-4.2105,-4.2103,-4.2102,0,0,-4.2015,-4.2036,-4.2055,-4.207,-4.209,-4.2127,-4.2185,-4.2223,-4.2249,-4.2272,-4.232,-4.2379,-4.2346,-4.2366,-4.2349,-4.2392,-4.2494,-4.235,-4.235,-4.2378,-4.2607,-4.2635,-4.2655,-4.2474,-4.2477,-4.248,-4.2606,0,-4.2138,-4.2239,-4.2222,-4.232,-4.2365,-4.2324,-4.2374,-4.2392,-4.2391,-4.2428,-4.2426,-4.2469,-4.2422,-4.2433,-4.2474,-4.2474,-4.254,-4.2464,-4.2519,-4.2521,-4.2516,-4.2677,-4.2707,-4.2825,-4.2622,-4.2624,-4.2626,0,-4.2296,-4.2326,-4.2429,-4.2443,-4.2461,-4.2507,-4.2541,-4.2577,-4.2596,-4.2592,-4.2615,-4.259,-4.2647,-4.2587,-4.2665,-4.2614,-4.2635,-4.2638,-4.2642,-4.2648,-4.2581,-4.2688,-4.2863,-4.2881,-4.2651,-4.2649,-4.2648,0,-4.2411,-4.2477,-4.2548,-4.2561,-4.2579,-4.2613,-4.2621,-4.2637,-4.2661,-4.269,-4.2706,-4.274,-4.276,-4.2787,-4.2773,-4.273,-4.2854,-4.2792,-4.2853,-4.2853,-4.2882,-4.2881,-4.3064,-4.2894,-4.2893,-4.2893,-4.2893,0,-4.2551,-4.2616,-4.26,-4.2643,-4.2714,-4.2694,-4.2764,-4.2768,-4.2783,-4.2826,-4.2791,-4.2832,-4.281,-4.2849,-4.2838,-4.2905,-4.2914,-4.2913,-4.2909,-4.2917,-4.2917,-4.2931,-4.2923,-4.2898,-4.2897,-4.2896,-4.2895,0,-4.2693,-4.2685,-4.2759,-4.277,-4.2774,-4.2826,-4.2835,-4.2875,-4.2871,-4.2926,-4.2938,-4.2932,-4.2976,-4.2964,-4.3012,-4.3005,-4.309,-4.3075,-4.3084,-4.3081,-4.3143,-4.3137,-4.3342,-4.3369,-4.318,-4.3182,-4.3183,0,-4.2784,-4.2833,-4.2849,-4.2876,-4.2888,-4.2931,-4.2956,-4.2937,-4.2964,-4.299,-4.3027,-4.3068,-4.31,-4.3173,-4.3173,-4.3209,-4.3196,-4.3265,-4.3201,-4.3207,-4.3198,-4.3196,-4.3201,-4.3278,-4.328,-4.3282,-4.3284,0,-4.2946,-4.294,-4.2977,-4.3013,-4.3044,-4.3071,-4.3095,-4.3119,-4.3101,-4.3133,-4.3178,-4.3204,-4.3253,-4.3295,-4.3328,-4.3336,-4.3308,-4.3303,-4.332,-4.3329,-4.3332,-4.3332,-4.312,-4.3299,-4.3298,-4.3296,-4.3296,-4.3295,-4.3066,-4.3108,-4.3127,-4.3169,-4.3185,-4.3209,-4.3247,-4.3249,-4.3286,-4.3326,-4.3312,-4.3364,-4.3381,-4.3424,-4.3436,-4.3476,-4.345,-4.3473,-4.3479,-4.3485,-4.3494,-4.3325,-4.3482,-4.3481,-4.3481,-4.3481,-4.348,0,-4.3228,-4.3238,-4.3277,-4.3313,-4.3346,-4.3316,-4.3341,-4.3371,-4.3418,-4.3437,-4.347,-4.3522,-4.3562,-4.3565,-4.3602,-4.3634,-4.3622,-4.3645,-4.3643,-4.3646,-4.3515,-4.3498,-4.3654,-4.3654,-4.3654,-4.3654,-4.3654,-4.3654,-4.3316,-4.3386,-4.3382,-4.3459,-4.3468,-4.352,-4.3537,-4.3558,-4.3573,-4.3634,-4.3667,-4.3669,-4.3681,-4.372,-4.3755,-4.3755,-4.3771,-4.3799,-4.3794,-4.3672,-4.3655,-4.3638,-4.3622,-4.3802,-4.3802,-4.3921,-4.3923,-4.3923]}]]